Location: Bruderhein
(53.8035°N, 112.9265°W)
Time: 13:59:29
(UTC+00:00)

deb Delta 139 - Pass Details

Date: 10 December 2023
Orbit: 731 x 794 km, 98.6° (Epoch: 01 March)

Event Time Altitude Azimuth Distance (km) Brightness Sun altitude
Rises 02:10:43 0° 188° (S) 3,245 ? -25.0°
Reaches altitude 10° 02:13:13 10° 197° (SSW) 2,313 ? -25.4°
Maximum altitude 02:17:53 36° 264° (W) 1,206 ? -26.1°
Drops below altitude 10° 02:22:31 10° 330° (NNW) 2,290 ? -26.8°
Sets 02:24:59 0° 339° (NNW) 3,210 ? -27.2°
